TimeEST,TemperatureF,Dew PointF,Humidity,Sea Level PressureIn,VisibilityMPH,Wind Direction,Wind SpeedMPH,Gust SpeedMPH,PrecipitationIn,Events,Conditions,WindDirDegrees,DateUTC
12:52 AM,24.1,1.0,37,30.35,10.0,NW,4.6,-,N/A,,Clear,310,2013-02-07 05:52:00
1:52 AM,23.0,3.0,42,30.36,10.0,WNW,3.5,-,N/A,,Clear,300,2013-02-07 06:52:00
2:52 AM,21.9,3.0,44,30.38,10.0,WNW,3.5,-,N/A,,Clear,300,2013-02-07 07:52:00
3:52 AM,21.0,5.0,50,30.39,10.0,NNW,3.5,-,N/A,,Clear,330,2013-02-07 08:52:00
4:52 AM,19.0,5.0,54,30.42,10.0,Calm,Calm,-,N/A,,Clear,0,2013-02-07 09:52:00
5:52 AM,17.1,6.1,62,30.43,10.0,Calm,Calm,-,N/A,,Clear,0,2013-02-07 10:52:00
6:52 AM,15.1,7.0,70,30.45,10.0,Calm,Calm,-,N/A,,Clear,0,2013-02-07 11:52:00
7:52 AM,18.0,7.0,62,30.50,10.0,Calm,Calm,-,N/A,,Clear,0,2013-02-07 12:52:00
8:52 AM,21.0,6.1,53,30.52,10.0,NE,4.6,-,N/A,,Overcast,40,2013-02-07 13:52:00
9:52 AM,24.1,3.9,42,30.53,10.0,NNW,5.8,-,N/A,,Partly Cloudy,330,2013-02-07 14:52:00
10:52 AM,26.1,1.9,35,30.53,10.0,Calm,Calm,-,N/A,,Scattered Clouds,0,2013-02-07 15:52:00
11:52 AM,28.0,1.9,33,30.51,10.0,NE,4.6,-,N/A,,Clear,40,2013-02-07 16:52:00
12:52 PM,30.9,1.9,29,30.48,10.0,Calm,Calm,-,N/A,,Clear,0,2013-02-07 17:52:00
1:52 PM,32.0,1.9,28,30.47,10.0,North,3.5,-,N/A,,Clear,360,2013-02-07 18:52:00
2:52 PM,33.1,1.9,27,30.46,10.0,Calm,Calm,-,N/A,,Clear,0,2013-02-07 19:52:00
3:52 PM,33.1,3.0,28,30.45,10.0,SSW,4.6,-,N/A,,Clear,200,2013-02-07 20:52:00
4:52 PM,30.9,3.0,31,30.46,10.0,SSE,3.5,-,N/A,,Clear,150,2013-02-07 21:52:00
5:52 PM,30.0,3.9,33,30.46,10.0,Calm,Calm,-,N/A,,Mostly Cloudy,0,2013-02-07 22:52:00
6:52 PM,30.0,7.0,38,30.47,10.0,SE,6.9,-,N/A,,Overcast,140,2013-02-07 23:52:00
7:52 PM,28.9,9.0,43,30.48,10.0,SSE,5.8,-,N/A,,Overcast,150,2013-02-08 00:52:00
8:52 PM,28.0,7.0,41,30.47,10.0,Calm,Calm,-,N/A,,Partly Cloudy,0,2013-02-08 01:52:00
9:52 PM,27.0,7.0,43,30.47,10.0,Calm,Calm,-,N/A,,Partly Cloudy,0,2013-02-08 02:52:00
10:52 PM,27.0,8.1,45,30.48,10.0,Variable,3.5,-,N/A,,Clear,0,2013-02-08 03:52:00
11:52 PM,26.1,5.0,41,30.46,10.0,East,6.9,-,N/A,,Scattered Clouds,80,2013-02-08 04:52:00